Year,Month,Day,Hour,Minute,Value (Times are PST for temperature in C)
2015,08,07,00,00,15.40
2015,08,07,00,01,15.40
2015,08,07,00,02,15.30
2015,08,07,00,03,15.30
2015,08,07,00,04,15.30
2015,08,07,00,05,15.30
2015,08,07,00,06,15.30
2015,08,07,00,07,15.30
2015,08,07,00,08,15.30
2015,08,07,00,09,15.30
2015,08,07,00,10,15.30
2015,08,07,00,11,15.40
2015,08,07,00,12,15.40
2015,08,07,00,13,15.40
2015,08,07,00,14,15.40
2015,08,07,00,15,15.40
2015,08,07,00,16,15.40
2015,08,07,00,17,15.50
2015,08,07,00,18,15.50
2015,08,07,00,19,15.50
2015,08,07,00,20,15.60
2015,08,07,00,21,15.60
2015,08,07,00,22,15.70
2015,08,07,00,23,15.70
2015,08,07,00,24,15.70
2015,08,07,00,25,15.70
2015,08,07,00,26,15.80
2015,08,07,00,27,15.80
2015,08,07,00,28,15.80
2015,08,07,00,29,15.80
2015,08,07,00,30,15.80
2015,08,07,00,31,15.80
2015,08,07,00,32,15.80
2015,08,07,00,33,15.80
2015,08,07,00,34,15.80
2015,08,07,00,35,15.80
2015,08,07,00,36,15.80
2015,08,07,00,37,15.80
2015,08,07,00,38,15.70
2015,08,07,00,39,15.70
2015,08,07,00,40,15.70
2015,08,07,00,41,15.70
2015,08,07,00,42,15.60
2015,08,07,00,43,15.60
2015,08,07,00,44,15.60
2015,08,07,00,45,15.50
2015,08,07,00,46,15.50
2015,08,07,00,47,15.50
2015,08,07,00,48,15.50
2015,08,07,00,49,15.40
2015,08,07,00,50,15.40
2015,08,07,00,51,15.30
2015,08,07,00,52,15.30
2015,08,07,00,53,15.30
2015,08,07,00,54,15.30
2015,08,07,00,55,15.30
2015,08,07,00,56,15.30
2015,08,07,00,57,15.30
2015,08,07,00,58,15.30
2015,08,07,00,59,15.30
2015,08,07,01,00,15.30
2015,08,07,01,01,15.30
2015,08,07,01,02,15.30
2015,08,07,01,03,15.30
2015,08,07,01,04,15.30
2015,08,07,01,05,15.30
2015,08,07,01,06,15.30
2015,08,07,01,07,15.20
2015,08,07,01,08,15.20
2015,08,07,01,09,15.10
2015,08,07,01,10,15.10
2015,08,07,01,11,15.00
2015,08,07,01,12,15.00
2015,08,07,01,13,14.90
2015,08,07,01,14,14.90
2015,08,07,01,15,14.90
2015,08,07,01,16,14.80
2015,08,07,01,17,14.80
2015,08,07,01,18,14.80
2015,08,07,01,19,14.80
2015,08,07,01,20,14.80
2015,08,07,01,21,14.80
2015,08,07,01,22,14.80
2015,08,07,01,23,14.80
2015,08,07,01,24,14.80
2015,08,07,01,25,14.80
2015,08,07,01,26,14.80
2015,08,07,01,27,14.80
2015,08,07,01,28,14.90
2015,08,07,01,29,14.90
2015,08,07,01,30,14.80
2015,08,07,01,31,14.80
2015,08,07,01,32,14.80
2015,08,07,01,33,14.80
2015,08,07,01,34,14.80
2015,08,07,01,35,14.80
2015,08,07,01,36,14.80
2015,08,07,01,37,14.80
2015,08,07,01,38,14.80
2015,08,07,01,39,14.80
2015,08,07,01,40,14.80
2015,08,07,01,41,14.80
2015,08,07,01,42,14.80
2015,08,07,01,43,14.80
2015,08,07,01,44,14.80
2015,08,07,01,45,14.80
2015,08,07,01,46,14.80
2015,08,07,01,47,14.80
2015,08,07,01,48,14.80
2015,08,07,01,49,14.80
2015,08,07,01,50,14.80
2015,08,07,01,51,14.80
2015,08,07,01,52,14.80
2015,08,07,01,53,14.80
2015,08,07,01,54,14.80
2015,08,07,01,55,14.80
2015,08,07,01,56,14.80
2015,08,07,01,57,14.80
2015,08,07,01,58,14.80
2015,08,07,01,59,14.80
2015,08,07,02,00,14.80
2015,08,07,02,01,14.80
2015,08,07,02,02,14.80
2015,08,07,02,03,14.80
2015,08,07,02,04,14.80
2015,08,07,02,05,14.80
2015,08,07,02,06,14.80
2015,08,07,02,07,14.80
2015,08,07,02,08,14.80
2015,08,07,02,09,14.80
2015,08,07,02,10,14.80
2015,08,07,02,11,14.80
2015,08,07,02,12,14.80
2015,08,07,02,13,14.80
2015,08,07,02,14,14.80
2015,08,07,02,15,14.70
2015,08,07,02,16,14.70
2015,08,07,02,17,14.70
2015,08,07,02,18,14.60
2015,08,07,02,19,14.60
2015,08,07,02,20,14.60
2015,08,07,02,21,14.60
2015,08,07,02,22,14.60
2015,08,07,02,23,14.60
2015,08,07,02,24,14.60
2015,08,07,02,25,14.50
2015,08,07,02,26,14.50
2015,08,07,02,27,14.50
2015,08,07,02,28,14.50
2015,08,07,02,29,14.40
2015,08,07,02,30,14.40
2015,08,07,02,31,14.40
2015,08,07,02,32,14.30
2015,08,07,02,33,14.30
2015,08,07,02,34,14.30
2015,08,07,02,35,14.30
2015,08,07,02,36,14.30
2015,08,07,02,37,14.30
2015,08,07,02,38,14.30
2015,08,07,02,39,14.30
2015,08,07,02,40,14.30
2015,08,07,02,41,14.30
2015,08,07,02,42,14.30
2015,08,07,02,43,14.30
2015,08,07,02,44,14.20
2015,08,07,02,45,14.20
2015,08,07,02,46,14.20
2015,08,07,02,47,14.20
2015,08,07,02,48,14.20
2015,08,07,02,49,14.20
2015,08,07,02,50,14.20
2015,08,07,02,51,14.20
2015,08,07,02,52,14.20
2015,08,07,02,53,14.20
2015,08,07,02,54,14.20
2015,08,07,02,55,14.20
2015,08,07,02,56,14.20
2015,08,07,02,57,14.30
2015,08,07,02,58,14.30
2015,08,07,02,59,14.30
2015,08,07,03,00,14.30
2015,08,07,03,01,14.30
2015,08,07,03,02,14.30
2015,08,07,03,03,14.30
2015,08,07,03,04,14.20
2015,08,07,03,05,14.20
2015,08,07,03,06,14.20
2015,08,07,03,07,14.20
2015,08,07,03,08,14.20
2015,08,07,03,09,14.20
2015,08,07,03,10,14.20
2015,08,07,03,11,14.20
2015,08,07,03,12,14.20
2015,08,07,03,13,14.20
2015,08,07,03,14,14.20
2015,08,07,03,15,14.20
2015,08,07,03,16,14.20
2015,08,07,03,17,14.20
2015,08,07,03,18,14.20
2015,08,07,03,19,14.20
2015,08,07,03,20,14.20
2015,08,07,03,21,14.20
2015,08,07,03,22,14.20
2015,08,07,03,23,14.20
2015,08,07,03,24,14.20
2015,08,07,03,25,14.20
2015,08,07,03,26,14.20
2015,08,07,03,27,14.20
2015,08,07,03,28,14.10
2015,08,07,03,29,14.10
2015,08,07,03,30,14.10
2015,08,07,03,31,14.10
2015,08,07,03,32,14.10
2015,08,07,03,33,14.00
2015,08,07,03,34,14.00
2015,08,07,03,35,14.00
2015,08,07,03,36,14.00
2015,08,07,03,37,13.90
2015,08,07,03,38,13.90
2015,08,07,03,39,13.90
2015,08,07,03,40,13.90
2015,08,07,03,41,13.90
2015,08,07,03,42,13.80
2015,08,07,03,43,13.80
2015,08,07,03,44,13.80
2015,08,07,03,45,13.80
2015,08,07,03,46,13.80
2015,08,07,03,47,13.80
2015,08,07,03,48,13.70
2015,08,07,03,49,13.70
2015,08,07,03,50,13.70
2015,08,07,03,51,13.70
2015,08,07,03,52,13.70
2015,08,07,03,53,13.70
2015,08,07,03,54,13.70
2015,08,07,03,55,13.70
2015,08,07,03,56,13.70
2015,08,07,03,57,13.70
2015,08,07,03,58,13.70
2015,08,07,03,59,13.70
2015,08,07,04,00,13.70
2015,08,07,04,01,13.70
2015,08,07,04,02,13.70
2015,08,07,04,03,13.70
2015,08,07,04,04,13.70
2015,08,07,04,05,13.70
2015,08,07,04,06,13.60
2015,08,07,04,07,13.60
2015,08,07,04,08,13.60
2015,08,07,04,09,13.60
2015,08,07,04,10,13.60
2015,08,07,04,11,13.60
2015,08,07,04,12,13.60
2015,08,07,04,13,13.60
2015,08,07,04,14,13.60
2015,08,07,04,15,13.60
2015,08,07,04,16,13.60
2015,08,07,04,17,13.60
2015,08,07,04,18,13.60
2015,08,07,04,19,13.50
2015,08,07,04,20,13.50
2015,08,07,04,21,13.50
2015,08,07,04,22,13.50
2015,08,07,04,23,13.40
2015,08,07,04,24,13.40
2015,08,07,04,25,13.40
2015,08,07,04,26,13.30
2015,08,07,04,27,13.30
2015,08,07,04,28,13.30
2015,08,07,04,29,13.30
2015,08,07,04,30,13.30
2015,08,07,04,31,13.30
2015,08,07,04,32,13.30
2015,08,07,04,33,13.30
2015,08,07,04,34,13.20
2015,08,07,04,35,13.30
2015,08,07,04,36,13.30
2015,08,07,04,37,13.30
2015,08,07,04,38,13.30
2015,08,07,04,39,13.30
2015,08,07,04,40,13.30
2015,08,07,04,41,13.30
2015,08,07,04,42,13.30
2015,08,07,04,43,13.30
2015,08,07,04,44,13.30
2015,08,07,04,45,13.30
2015,08,07,04,46,13.30
2015,08,07,04,47,13.30
2015,08,07,04,48,13.30
2015,08,07,04,49,13.30
2015,08,07,04,50,13.30
2015,08,07,04,51,13.20
2015,08,07,04,52,13.20
2015,08,07,04,53,13.20
2015,08,07,04,54,13.20
2015,08,07,04,55,13.20
2015,08,07,04,56,13.20
2015,08,07,04,57,13.20
2015,08,07,04,58,13.20
2015,08,07,04,59,13.20
2015,08,07,05,00,13.20
2015,08,07,05,01,13.20
2015,08,07,05,02,13.10
2015,08,07,05,03,13.10
2015,08,07,05,04,13.10
2015,08,07,05,05,13.10
2015,08,07,05,06,13.00
2015,08,07,05,07,13.00
2015,08,07,05,08,13.00
2015,08,07,05,09,12.90
2015,08,07,05,10,12.90
2015,08,07,05,11,12.90
2015,08,07,05,12,12.90
2015,08,07,05,13,12.80
2015,08,07,05,14,12.80
2015,08,07,05,15,12.90
2015,08,07,05,16,12.90
2015,08,07,05,17,12.90
2015,08,07,05,18,12.90
2015,08,07,05,19,12.90
2015,08,07,05,20,12.90
2015,08,07,05,21,12.90
2015,08,07,05,22,12.90
2015,08,07,05,23,12.90
2015,08,07,05,24,12.80
2015,08,07,05,25,12.80
2015,08,07,05,26,12.80
2015,08,07,05,27,12.80
2015,08,07,05,28,12.80
2015,08,07,05,29,12.80
2015,08,07,05,30,12.80
2015,08,07,05,31,12.80
2015,08,07,05,32,12.70
2015,08,07,05,33,12.70
2015,08,07,05,34,12.70
2015,08,07,05,35,12.70
2015,08,07,05,36,12.70
2015,08,07,05,37,12.70
2015,08,07,05,38,12.70
2015,08,07,05,39,12.70
2015,08,07,05,40,12.70
2015,08,07,05,41,12.70
2015,08,07,05,42,12.70
2015,08,07,05,43,12.70
2015,08,07,05,44,12.70
2015,08,07,05,45,12.70
2015,08,07,05,46,12.70
2015,08,07,05,47,12.60
2015,08,07,05,48,12.60
2015,08,07,05,49,12.60
2015,08,07,05,50,12.50
2015,08,07,05,51,12.50
2015,08,07,05,52,12.50
2015,08,07,05,53,12.40
2015,08,07,05,54,12.40
2015,08,07,05,55,12.40
2015,08,07,05,56,12.40
2015,08,07,05,57,12.40
2015,08,07,05,58,12.50
2015,08,07,05,59,12.50
2015,08,07,06,00,12.50
2015,08,07,06,01,12.50
2015,08,07,06,02,12.50
2015,08,07,06,03,12.50
2015,08,07,06,04,12.50
2015,08,07,06,05,12.60
2015,08,07,06,06,12.60
2015,08,07,06,07,12.50
2015,08,07,06,08,12.50
2015,08,07,06,09,12.50
2015,08,07,06,10,12.50
2015,08,07,06,11,12.50
2015,08,07,06,12,12.50
2015,08,07,06,13,12.50
2015,08,07,06,14,12.50
2015,08,07,06,15,12.60
2015,08,07,06,16,12.60
2015,08,07,06,17,12.60
2015,08,07,06,18,12.70
2015,08,07,06,19,12.70
2015,08,07,06,20,12.70
2015,08,07,06,21,12.70
2015,08,07,06,22,12.80
2015,08,07,06,23,12.80
2015,08,07,06,24,12.80
2015,08,07,06,25,12.80
2015,08,07,06,26,12.80
2015,08,07,06,27,12.80
2015,08,07,06,28,12.90
2015,08,07,06,29,12.90
2015,08,07,06,30,13.00
2015,08,07,06,31,13.00
2015,08,07,06,32,13.00
2015,08,07,06,33,13.10
2015,08,07,06,34,13.10
2015,08,07,06,35,13.10
2015,08,07,06,36,13.20
2015,08,07,06,37,13.20
2015,08,07,06,38,13.20
2015,08,07,06,39,13.20
2015,08,07,06,40,13.30
2015,08,07,06,41,13.30
2015,08,07,06,42,13.30
2015,08,07,06,43,13.30
2015,08,07,06,44,13.30
2015,08,07,06,45,13.30
2015,08,07,06,46,13.30
2015,08,07,06,47,13.40
2015,08,07,06,48,13.40
2015,08,07,06,49,13.40
2015,08,07,06,50,13.50
2015,08,07,06,51,13.50
2015,08,07,06,52,13.50
2015,08,07,06,53,13.60
2015,08,07,06,54,13.60
2015,08,07,06,55,13.70
2015,08,07,06,56,13.70
2015,08,07,06,57,13.70
2015,08,07,06,58,13.80
2015,08,07,06,59,13.90
2015,08,07,07,00,14.00
2015,08,07,07,01,14.00
2015,08,07,07,02,14.10
2015,08,07,07,03,14.20
2015,08,07,07,04,14.20
2015,08,07,07,05,14.30
2015,08,07,07,06,14.40
2015,08,07,07,07,14.50
2015,08,07,07,08,14.70
2015,08,07,07,09,14.80
2015,08,07,07,10,14.90
2015,08,07,07,11,15.00
2015,08,07,07,12,15.10
2015,08,07,07,13,15.20
2015,08,07,07,14,15.30
2015,08,07,07,15,15.30
2015,08,07,07,16,15.40
2015,08,07,07,17,15.50
2015,08,07,07,18,15.50
2015,08,07,07,19,15.50
2015,08,07,07,20,15.50
2015,08,07,07,21,15.50
2015,08,07,07,22,15.50
2015,08,07,07,23,15.60
2015,08,07,07,24,15.60
2015,08,07,07,25,15.60
2015,08,07,07,26,15.50
2015,08,07,07,27,15.60
2015,08,07,07,28,15.60
2015,08,07,07,29,15.60
2015,08,07,07,30,15.70
2015,08,07,07,31,15.70
2015,08,07,07,32,15.70
2015,08,07,07,33,15.70
2015,08,07,07,34,15.70
2015,08,07,07,35,15.70
2015,08,07,07,36,15.70
2015,08,07,07,37,15.70
2015,08,07,07,38,15.70
2015,08,07,07,39,15.70
2015,08,07,07,40,15.80
2015,08,07,07,41,15.80
2015,08,07,07,42,15.80
2015,08,07,07,43,15.80
2015,08,07,07,44,15.80
2015,08,07,07,45,15.80
2015,08,07,07,46,15.90
2015,08,07,07,47,15.90
2015,08,07,07,48,16.00
2015,08,07,07,49,16.10
2015,08,07,07,50,16.20
2015,08,07,07,51,16.30
2015,08,07,07,52,16.40
2015,08,07,07,53,16.40
2015,08,07,07,54,16.40
2015,08,07,07,55,16.40
2015,08,07,07,56,16.40
2015,08,07,07,57,16.40
2015,08,07,07,58,16.50
2015,08,07,07,59,16.60
2015,08,07,08,00,16.70
2015,08,07,08,01,16.90
2015,08,07,08,02,17.00
2015,08,07,08,03,17.10
2015,08,07,08,04,17.20
2015,08,07,08,05,17.30
2015,08,07,08,06,17.50
2015,08,07,08,07,17.50
2015,08,07,08,08,17.60
2015,08,07,08,09,17.70
2015,08,07,08,10,17.70
2015,08,07,08,11,17.80
2015,08,07,08,12,17.80
2015,08,07,08,13,17.70
2015,08,07,08,14,17.70
2015,08,07,08,15,17.60
2015,08,07,08,16,17.50
2015,08,07,08,17,17.50
2015,08,07,08,18,17.50
2015,08,07,08,19,17.40
2015,08,07,08,20,17.40
2015,08,07,08,21,17.40
2015,08,07,08,22,17.40
2015,08,07,08,23,17.40
2015,08,07,08,24,17.30
2015,08,07,08,25,17.20
2015,08,07,08,26,17.20
2015,08,07,08,27,17.10
2015,08,07,08,28,17.10
2015,08,07,08,29,17.10
2015,08,07,08,30,17.10
2015,08,07,08,31,17.10
2015,08,07,08,32,17.10
2015,08,07,08,33,17.10
2015,08,07,08,34,17.10
2015,08,07,08,35,17.10
2015,08,07,08,36,17.10
2015,08,07,08,37,17.10
2015,08,07,08,38,17.00
2015,08,07,08,39,16.90
2015,08,07,08,40,16.80
2015,08,07,08,41,16.70
2015,08,07,08,42,16.60
2015,08,07,08,43,16.60
2015,08,07,08,44,16.60
2015,08,07,08,45,16.60
2015,08,07,08,46,16.60
2015,08,07,08,47,16.60
2015,08,07,08,48,16.70
2015,08,07,08,49,16.70
2015,08,07,08,50,16.70
2015,08,07,08,51,16.70
2015,08,07,08,52,16.80
2015,08,07,08,53,16.90
2015,08,07,08,54,17.00
2015,08,07,08,55,17.00
2015,08,07,08,56,17.00
2015,08,07,08,57,17.00
2015,08,07,08,58,17.00
2015,08,07,08,59,17.00
2015,08,07,09,00,17.00
2015,08,07,09,01,17.00
2015,08,07,09,02,17.00
2015,08,07,09,03,16.90
2015,08,07,09,04,16.80
2015,08,07,09,05,16.70
2015,08,07,09,06,16.50
2015,08,07,09,07,16.40
2015,08,07,09,08,16.30
2015,08,07,09,09,16.10
2015,08,07,09,10,15.90
2015,08,07,09,11,15.80
2015,08,07,09,12,15.70
2015,08,07,09,13,15.60
2015,08,07,09,14,15.50
2015,08,07,09,15,15.40
2015,08,07,09,16,15.30
2015,08,07,09,17,15.40
2015,08,07,09,18,15.30
2015,08,07,09,19,15.30
2015,08,07,09,20,15.30
2015,08,07,09,21,15.40
2015,08,07,09,22,15.40
2015,08,07,09,23,15.60
2015,08,07,09,24,15.60
2015,08,07,09,25,15.70
2015,08,07,09,26,15.70
2015,08,07,09,27,15.80
2015,08,07,09,28,15.80
2015,08,07,09,29,15.70
2015,08,07,09,30,15.70
2015,08,07,09,31,15.70
2015,08,07,09,32,15.60
2015,08,07,09,33,15.50
2015,08,07,09,34,15.50
2015,08,07,09,35,15.50
2015,08,07,09,36,15.50
2015,08,07,09,37,15.60
2015,08,07,09,38,15.70
2015,08,07,09,39,15.80
2015,08,07,09,40,15.80
2015,08,07,09,41,15.90
2015,08,07,09,42,16.00
2015,08,07,09,43,16.10
2015,08,07,09,44,16.20
2015,08,07,09,45,16.30
2015,08,07,09,46,16.40
2015,08,07,09,47,16.40
2015,08,07,09,48,16.40
2015,08,07,09,49,16.40
2015,08,07,09,50,16.40
2015,08,07,09,51,16.30
2015,08,07,09,52,16.30
2015,08,07,09,53,16.30
2015,08,07,09,54,16.20
2015,08,07,09,55,16.20
2015,08,07,09,56,16.20
2015,08,07,09,57,16.30
2015,08,07,09,58,16.40
2015,08,07,09,59,16.40
2015,08,07,10,00,16.40
2015,08,07,10,01,16.40
2015,08,07,10,02,16.30
2015,08,07,10,03,16.30
2015,08,07,10,04,16.20
2015,08,07,10,05,16.10
2015,08,07,10,06,16.20
2015,08,07,10,07,16.20
2015,08,07,10,08,16.20
2015,08,07,10,09,16.30
2015,08,07,10,10,16.50
2015,08,07,10,11,16.60
2015,08,07,10,12,16.70
2015,08,07,10,13,16.70
2015,08,07,10,14,16.70
2015,08,07,10,15,16.80
2015,08,07,10,16,16.90
2015,08,07,10,17,17.00
2015,08,07,10,18,17.10
2015,08,07,10,19,17.20
2015,08,07,10,20,17.30
2015,08,07,10,21,17.20
2015,08,07,10,22,17.10
2015,08,07,10,23,17.10
2015,08,07,10,24,17.00
2015,08,07,10,25,17.00
2015,08,07,10,26,17.10
2015,08,07,10,27,17.20
2015,08,07,10,28,17.40
2015,08,07,10,29,17.50
2015,08,07,10,30,17.60
2015,08,07,10,31,17.80
2015,08,07,10,32,17.90
2015,08,07,10,33,17.90
2015,08,07,10,34,17.80
2015,08,07,10,35,17.80
2015,08,07,10,36,17.90
2015,08,07,10,37,17.90
2015,08,07,10,38,17.80
2015,08,07,10,39,17.80
2015,08,07,10,40,17.70
2015,08,07,10,41,17.80
2015,08,07,10,42,17.80
2015,08,07,10,43,17.80
2015,08,07,10,44,17.70
2015,08,07,10,45,17.70
2015,08,07,10,46,17.70
2015,08,07,10,47,17.80
2015,08,07,10,48,17.80
2015,08,07,10,49,17.80
2015,08,07,10,50,17.70
2015,08,07,10,51,17.70
2015,08,07,10,52,17.50
2015,08,07,10,53,17.40
2015,08,07,10,54,17.30
2015,08,07,10,55,17.30
2015,08,07,10,56,17.30
2015,08,07,10,57,17.20
2015,08,07,10,58,17.10
2015,08,07,10,59,17.10
2015,08,07,11,00,17.00
2015,08,07,11,01,16.90
2015,08,07,11,02,16.90
2015,08,07,11,03,16.80
2015,08,07,11,04,16.70
2015,08,07,11,05,16.70
2015,08,07,11,06,16.70
2015,08,07,11,07,16.70
2015,08,07,11,08,16.70
2015,08,07,11,09,16.70
2015,08,07,11,10,16.70
2015,08,07,11,11,16.70
2015,08,07,11,12,16.60
2015,08,07,11,13,16.50
2015,08,07,11,14,16.30
2015,08,07,11,15,16.20
2015,08,07,11,16,16.20
2015,08,07,11,17,16.10
2015,08,07,11,18,16.10
2015,08,07,11,19,16.10
2015,08,07,11,20,16.10
2015,08,07,11,21,16.20
2015,08,07,11,22,16.20
2015,08,07,11,23,16.20
2015,08,07,11,24,16.20
2015,08,07,11,25,16.20
2015,08,07,11,26,16.30
2015,08,07,11,27,16.40
2015,08,07,11,28,16.40
2015,08,07,11,29,16.40
2015,08,07,11,30,16.40
2015,08,07,11,31,16.50
2015,08,07,11,32,16.60
2015,08,07,11,33,16.60
2015,08,07,11,34,16.70
2015,08,07,11,35,16.70
2015,08,07,11,36,16.70
2015,08,07,11,37,16.70
2015,08,07,11,38,16.60
2015,08,07,11,39,16.60
2015,08,07,11,40,16.60
2015,08,07,11,41,16.60
2015,08,07,11,42,16.60
2015,08,07,11,43,16.60
2015,08,07,11,44,16.80
2015,08,07,11,45,17.00
2015,08,07,11,46,17.10
2015,08,07,11,47,17.30
2015,08,07,11,48,17.50
2015,08,07,11,49,17.60
2015,08,07,11,50,17.70
2015,08,07,11,51,17.80
2015,08,07,11,52,17.90
2015,08,07,11,53,17.90
2015,08,07,11,54,17.90
2015,08,07,11,55,17.80
2015,08,07,11,56,17.70
2015,08,07,11,57,17.50
2015,08,07,11,58,17.50
2015,08,07,11,59,17.40
2015,08,07,12,00,17.40
2015,08,07,12,01,17.50
2015,08,07,12,02,17.60
2015,08,07,12,03,17.60
2015,08,07,12,04,17.60
2015,08,07,12,05,17.70
2015,08,07,12,06,17.90
2015,08,07,12,07,17.90
2015,08,07,12,08,18.10
2015,08,07,12,09,18.20
2015,08,07,12,10,18.20
2015,08,07,12,11,18.30
2015,08,07,12,12,18.40
2015,08,07,12,13,18.50
2015,08,07,12,14,18.50
2015,08,07,12,15,18.60
2015,08,07,12,16,18.70
2015,08,07,12,17,18.80
2015,08,07,12,18,18.80
2015,08,07,12,19,18.80
2015,08,07,12,20,18.80
2015,08,07,12,21,18.70
2015,08,07,12,22,18.70
2015,08,07,12,23,18.70
2015,08,07,12,24,18.70
2015,08,07,12,25,18.80
2015,08,07,12,26,18.80
2015,08,07,12,27,18.70
2015,08,07,12,28,18.60
2015,08,07,12,29,18.60
2015,08,07,12,30,18.70
2015,08,07,12,31,18.80
2015,08,07,12,32,18.70
2015,08,07,12,33,18.70
2015,08,07,12,34,18.60
2015,08,07,12,35,18.60
2015,08,07,12,36,18.70
2015,08,07,12,37,18.70
2015,08,07,12,38,18.80
2015,08,07,12,39,18.80
2015,08,07,12,40,18.90
2015,08,07,12,41,19.00
2015,08,07,12,42,19.10
2015,08,07,12,43,19.20
2015,08,07,12,44,19.10
2015,08,07,12,45,19.10
2015,08,07,12,46,19.10
2015,08,07,12,47,19.20
2015,08,07,12,48,19.30
2015,08,07,12,49,19.30
2015,08,07,12,50,19.30
2015,08,07,12,51,19.40
2015,08,07,12,52,19.40
2015,08,07,12,53,19.40
2015,08,07,12,54,19.30
2015,08,07,12,55,19.30
2015,08,07,12,56,19.30
2015,08,07,12,57,19.30
2015,08,07,12,58,19.30
2015,08,07,12,59,19.40
2015,08,07,13,00,19.50
2015,08,07,13,01,19.50
2015,08,07,13,02,19.50
2015,08,07,13,03,19.30
2015,08,07,13,04,19.20
2015,08,07,13,05,19.20
2015,08,07,13,06,19.20
2015,08,07,13,07,19.20
2015,08,07,13,08,19.10
2015,08,07,13,09,19.10
2015,08,07,13,10,19.00
2015,08,07,13,11,18.90
2015,08,07,13,12,18.90
2015,08,07,13,13,18.90
2015,08,07,13,14,18.70
2015,08,07,13,15,18.60
2015,08,07,13,16,18.50
2015,08,07,13,17,18.50
2015,08,07,13,18,18.40
2015,08,07,13,19,18.20
2015,08,07,13,20,18.10
2015,08,07,13,21,17.90
2015,08,07,13,22,17.90
2015,08,07,13,23,17.80
2015,08,07,13,24,17.70
2015,08,07,13,25,17.70
2015,08,07,13,26,17.70
2015,08,07,13,27,17.80
2015,08,07,13,28,17.80
2015,08,07,13,29,17.80
2015,08,07,13,30,17.90
2015,08,07,13,31,17.90
2015,08,07,13,32,18.00
2015,08,07,13,33,18.10
2015,08,07,13,34,18.10
2015,08,07,13,35,18.20
2015,08,07,13,36,18.20
2015,08,07,13,37,18.20
2015,08,07,13,38,18.20
2015,08,07,13,39,18.30
2015,08,07,13,40,18.40
2015,08,07,13,41,18.40
2015,08,07,13,42,18.40
2015,08,07,13,43,18.40
2015,08,07,13,44,18.30
2015,08,07,13,45,18.20
2015,08,07,13,46,18.00
2015,08,07,13,47,17.90
2015,08,07,13,48,17.90
2015,08,07,13,49,17.90
2015,08,07,13,50,17.90
2015,08,07,13,51,17.80
2015,08,07,13,52,17.70
2015,08,07,13,53,17.60
2015,08,07,13,54,17.60
2015,08,07,13,55,17.60
2015,08,07,13,56,17.40
2015,08,07,13,57,17.30
2015,08,07,13,58,17.10
2015,08,07,13,59,17.00
2015,08,07,14,00,16.90
2015,08,07,14,01,16.80
2015,08,07,14,02,16.70
2015,08,07,14,03,16.70
2015,08,07,14,04,16.70
2015,08,07,14,05,16.70
2015,08,07,14,06,16.70
2015,08,07,14,07,16.80
2015,08,07,14,08,16.90
2015,08,07,14,09,17.10
2015,08,07,14,10,17.20
2015,08,07,14,11,17.30
2015,08,07,14,12,17.30
2015,08,07,14,13,17.40
2015,08,07,14,14,17.50
2015,08,07,14,15,17.60
2015,08,07,14,16,17.60
2015,08,07,14,17,17.60
2015,08,07,14,18,17.60
2015,08,07,14,19,17.50
2015,08,07,14,20,17.50
2015,08,07,14,21,17.50
2015,08,07,14,22,17.50
2015,08,07,14,23,17.50
2015,08,07,14,24,17.30
2015,08,07,14,25,17.20
2015,08,07,14,26,17.10
2015,08,07,14,27,16.90
2015,08,07,14,28,16.70
2015,08,07,14,29,16.40
2015,08,07,14,30,16.20
2015,08,07,14,31,16.00
2015,08,07,14,32,15.80
2015,08,07,14,33,15.60
2015,08,07,14,34,15.70
2015,08,07,14,35,15.80
2015,08,07,14,36,15.80
2015,08,07,14,37,15.80
2015,08,07,14,38,15.90
2015,08,07,14,39,16.10
2015,08,07,14,40,16.10
2015,08,07,14,41,16.20
2015,08,07,14,42,16.10
2015,08,07,14,43,16.20
2015,08,07,14,44,16.30
2015,08,07,14,45,16.50
2015,08,07,14,46,16.70
2015,08,07,14,47,16.70
2015,08,07,14,48,16.70
2015,08,07,14,49,16.70
2015,08,07,14,50,16.60
2015,08,07,14,51,16.60
2015,08,07,14,52,16.60
2015,08,07,14,53,16.60
2015,08,07,14,54,16.70
2015,08,07,14,55,16.70
2015,08,07,14,56,16.70
2015,08,07,14,57,16.70
2015,08,07,14,58,16.50
2015,08,07,14,59,16.30
2015,08,07,15,00,16.30
2015,08,07,15,01,16.20
2015,08,07,15,02,16.30
2015,08,07,15,03,16.40
2015,08,07,15,04,16.50
2015,08,07,15,05,16.60
2015,08,07,15,06,16.60
2015,08,07,15,07,16.70
2015,08,07,15,08,16.70
2015,08,07,15,09,16.70
2015,08,07,15,10,16.70
2015,08,07,15,11,16.70
2015,08,07,15,12,16.70
2015,08,07,15,13,16.70
2015,08,07,15,14,16.60
2015,08,07,15,15,16.60
2015,08,07,15,16,16.60
2015,08,07,15,17,16.70
2015,08,07,15,18,16.70
2015,08,07,15,19,16.70
2015,08,07,15,20,16.60
2015,08,07,15,21,16.50
2015,08,07,15,22,16.30
2015,08,07,15,23,16.20
2015,08,07,15,24,16.10
2015,08,07,15,25,15.90
2015,08,07,15,26,15.90
2015,08,07,15,27,15.80
2015,08,07,15,28,15.70
2015,08,07,15,29,15.70
2015,08,07,15,30,15.60
2015,08,07,15,31,15.60
2015,08,07,15,32,15.40
2015,08,07,15,33,15.30
2015,08,07,15,34,15.30
2015,08,07,15,35,15.30
2015,08,07,15,36,15.30
2015,08,07,15,37,15.30
2015,08,07,15,38,15.40
2015,08,07,15,39,15.40
2015,08,07,15,40,15.50
2015,08,07,15,41,15.50
2015,08,07,15,42,15.50
2015,08,07,15,43,15.60
2015,08,07,15,44,15.60
2015,08,07,15,45,15.60
2015,08,07,15,46,15.70
2015,08,07,15,47,15.70
2015,08,07,15,48,15.70
2015,08,07,15,49,15.80
2015,08,07,15,50,15.80
2015,08,07,15,51,15.80
2015,08,07,15,52,15.80
2015,08,07,15,53,15.80
2015,08,07,15,54,15.80
2015,08,07,15,55,15.90
2015,08,07,15,56,15.90
2015,08,07,15,57,15.90
2015,08,07,15,58,15.90
2015,08,07,15,59,15.90
2015,08,07,16,00,16.00
2015,08,07,16,01,16.10
2015,08,07,16,02,16.20
2015,08,07,16,03,16.30
2015,08,07,16,04,16.40
2015,08,07,16,05,16.40
2015,08,07,16,06,16.40
2015,08,07,16,07,16.40
2015,08,07,16,08,16.40
2015,08,07,16,09,16.50
2015,08,07,16,10,16.60
2015,08,07,16,11,16.60
2015,08,07,16,12,16.70
2015,08,07,16,13,16.90
2015,08,07,16,14,17.00
2015,08,07,16,15,17.10
2015,08,07,16,16,17.30
2015,08,07,16,17,17.40
2015,08,07,16,18,17.50
2015,08,07,16,19,17.60
2015,08,07,16,20,17.70
2015,08,07,16,21,17.90
2015,08,07,16,22,18.00
2015,08,07,16,23,18.10
2015,08,07,16,24,18.20
2015,08,07,16,25,18.20
2015,08,07,16,26,18.20
2015,08,07,16,27,18.30
2015,08,07,16,28,18.40
2015,08,07,16,29,18.40
2015,08,07,16,30,18.50
2015,08,07,16,31,18.60
2015,08,07,16,32,18.70
2015,08,07,16,33,18.90
2015,08,07,16,34,19.00
2015,08,07,16,35,19.20
2015,08,07,16,36,19.30
2015,08,07,16,37,19.40
2015,08,07,16,38,19.40
2015,08,07,16,39,19.50
2015,08,07,16,40,19.50
2015,08,07,16,41,19.60
2015,08,07,16,42,19.60
2015,08,07,16,43,19.60
2015,08,07,16,44,19.60
2015,08,07,16,45,19.60
2015,08,07,16,46,19.60
2015,08,07,16,47,19.60
2015,08,07,16,48,19.60
2015,08,07,16,49,19.70
2015,08,07,16,50,19.70
2015,08,07,16,51,19.70
2015,08,07,16,52,19.80
2015,08,07,16,53,19.90
2015,08,07,16,54,19.90
2015,08,07,16,55,20.00
2015,08,07,16,56,20.10
2015,08,07,16,57,20.20
2015,08,07,16,58,20.20
2015,08,07,16,59,20.20
2015,08,07,17,00,20.30
2015,08,07,17,01,20.30
2015,08,07,17,02,20.40
2015,08,07,17,03,20.40
2015,08,07,17,04,20.40
2015,08,07,17,05,20.40
2015,08,07,17,06,20.40
2015,08,07,17,07,20.30
2015,08,07,17,08,20.30
2015,08,07,17,09,20.20
2015,08,07,17,10,20.20
2015,08,07,17,11,20.10
2015,08,07,17,12,20.10
2015,08,07,17,13,20.00
2015,08,07,17,14,19.80
2015,08,07,17,15,19.70
2015,08,07,17,16,19.50
2015,08,07,17,17,19.50
2015,08,07,17,18,19.50
2015,08,07,17,19,19.40